When you browse on this site, cookies collect data to enhance your experience and personalize the content and advertising you see.
Visit our Privacy Policy to learn more. By continuing to use the site, you agree to this use of cookies and data.
  • In Hungary
  • List of Countries
  • For 7 days
  • Water Temperature
  • Satellite Maps
  • Weather Map
  • News
  • Weather Widgets
  • user-avatar
    Login

    Hourly Weather Zabytow

    Today, 20 November, Tuesday

    Time Temperature Precipitation Wind Pressure Humidity
    00:00 -3°C° 0 mm 4 mps 751 mmHg 81%
    01:00 -4°C° 0 mm 4 mps 751 mmHg 82%
    02:00 -2°C° 0 mm 3 mps 751 mmHg 85%
    03:00 -3°C° 0 mm 4 mps 751 mmHg 84%
    04:00 -3°C° 0 mm 4 mps 751 mmHg 84%
    05:00 -5°C° 0 mm 5 mps 751 mmHg 84%
    06:00 -5°C° 0 mm 5 mps 751 mmHg 83%
    07:00 -5°C° 0 mm 5 mps 751 mmHg 82%
    08:00 -5°C° 0 mm 5 mps 752 mmHg 80%
    09:00 -4°C° 0 mm 5 mps 751 mmHg 78%
    10:00 -4°C° 0 mm 5 mps 751 mmHg 75%
    11:00 -2°C° 0 mm 5 mps 751 mmHg 73%
    12:00 -2°C° 0 mm 5 mps 751 mmHg 69%
    13:00 -2°C° 0 mm 6 mps 751 mmHg 65%
    14:00 -1°C° 0 mm 6 mps 750 mmHg 61%
    15:00 -2°C° 0 mm 6 mps 750 mmHg 63%
    16:00 -2°C° 0 mm 5 mps 750 mmHg 66%
    17:00 -2°C° 0 mm 5 mps 749 mmHg 69%
    18:00 -3°C° 0 mm 6 mps 749 mmHg 69%
    19:00 -4°C° 0 mm 6 mps 749 mmHg 70%
    20:00 -4°C° 0 mm 6 mps 749 mmHg 71%
    21:00 -4°C° 0 mm 6 mps 749 mmHg 72%
    22:00 -4°C° 0 mm 6 mps 749 mmHg 72%
    23:00 -4°C° 0 mm 6 mps 749 mmHg 73%

    Tomorrow, 21 November, Wednesday

    Time Temperature Precipitation Wind Pressure Humidity
    00:00 -4°C° 0 mm 6 mps 749 mmHg 74%
    01:00 -4°C° 0 mm 6 mps 749 mmHg 76%
    02:00 -4°C° 0 mm 6 mps 749 mmHg 77%
    03:00 -4°C° 0 mm 6 mps 749 mmHg 79%
    04:00 -4°C° 0 mm 6 mps 749 mmHg 81%
    05:00 -4°C° 0 mm 6 mps 749 mmHg 83%
    06:00 -4°C° 0 mm 6 mps 749 mmHg 83%
    07:00 -4°C° 0 mm 6 mps 749 mmHg 83%
    08:00 -4°C° 0 mm 6 mps 749 mmHg 83%
    09:00 -4°C° 0 mm 6 mps 750 mmHg 81%
    10:00 -3°C° 0 mm 6 mps 750 mmHg 78%
    11:00 -3°C° 0 mm 6 mps 750 mmHg 76%
    12:00 -3°C° 0 mm 6 mps 750 mmHg 74%
    13:00 -2°C° 0 mm 6 mps 750 mmHg 72%
    14:00 -1°C° 0 mm 5 mps 750 mmHg 70%
    15:00 -1°C° 0 mm 5 mps 750 mmHg 71%
    16:00 -2°C° 0 mm 5 mps 750 mmHg 73%
    17:00 -2°C° 0 mm 4 mps 750 mmHg 75%
    18:00 -2°C° 0 mm 4 mps 750 mmHg 76%
    19:00 -3°C° 0 mm 4 mps 751 mmHg 77%
    20:00 -4°C° 0 mm 5 mps 751 mmHg 78%
    21:00 -3°C° 0 mm 4 mps 751 mmHg 79%
    22:00 -3°C° 0 mm 4 mps 751 mmHg 80%
    23:00 -3°C° 0 mm 4 mps 751 mmHg 80%

    Day after tomorrow, 22 November, Thursday

    Time Temperature Precipitation Wind Pressure Humidity
    00:00 -4°C° 0 mm 4 mps 751 mmHg 81%
    01:00 -4°C° 0 mm 4 mps 751 mmHg 82%
    02:00 -4°C° 0 mm 4 mps 751 mmHg 82%
    03:00 -4°C° 0 mm 4 mps 751 mmHg 82%
    04:00 -4°C° 0 mm 4 mps 751 mmHg 82%
    05:00 -4°C° 0 mm 4 mps 751 mmHg 81%
    06:00 -4°C° 0 mm 3 mps 751 mmHg 82%
    07:00 -4°C° 0 mm 3 mps 751 mmHg 82%
    08:00 -5°C° 0 mm 3 mps 751 mmHg 83%
    09:00 -4°C° 0 mm 3 mps 752 mmHg 77%
    10:00 -1°C° 0 mm 3 mps 752 mmHg 71%
    11:00 -1°C° 0 mm 4 mps 752 mmHg 65%
    12:00 -1°C° 0 mm 4 mps 752 mmHg 63%
    13:00 +1°C° 0 mm 3 mps 752 mmHg 60%
    14:00 +1°C° 0 mm 3 mps 752 mmHg 57%
    15:00 0°C° 0 mm 3 mps 752 mmHg 63%
    16:00 -1°C° 0 mm 3 mps 752 mmHg 69%
    17:00 -2°C° 0 mm 2 mps 752 mmHg 74%
    18:00 -2°C° 0 mm 2 mps 752 mmHg 76%
    19:00 -2°C° 0 mm 2 mps 752 mmHg 77%
    20:00 -3°C° 0 mm 2 mps 752 mmHg 79%
    21:00 -3°C° 0 mm 2 mps 752 mmHg 79%
    22:00 -3°C° 0 mm 2 mps 752 mmHg 79%
    23:00 -3°C° 0 mm 2 mps 752 mmHg 78%

    23 November, Friday

    Time Temperature Precipitation Wind Pressure Humidity
    00:00 -3°C° 0 mm 2 mps 753 mmHg 78%
    01:00 -3°C° 0 mm 2 mps 753 mmHg 78%
    02:00 -3°C° 0 mm 2 mps 753 mmHg 78%
    03:00 -3°C° 0 mm 2 mps 753 mmHg 78%
    04:00 -3°C° 0 mm 2 mps 753 mmHg 77%
    05:00 -3°C° 0 mm 2 mps 753 mmHg 77%
    06:00 -3°C° 0 mm 2 mps 753 mmHg 77%
    07:00 -3°C° 0 mm 2 mps 753 mmHg 77%
    08:00 -3°C° 0 mm 2 mps 753 mmHg 77%
    09:00 -2°C° 0 mm 2 mps 753 mmHg 71%
    10:00 -1°C° 0 mm 2 mps 753 mmHg 65%
    11:00 +1°C° 0 mm 2 mps 754 mmHg 59%
    12:00 +2°C° 0 mm 2 mps 753 mmHg 57%
    13:00 +2°C° 0 mm 2 mps 753 mmHg 55%
    14:00 +2°C° 0 mm 3 mps 753 mmHg 53%
    15:00 +2°C° 0 mm 2 mps 753 mmHg 58%
    16:00 +1°C° 0 mm 2 mps 753 mmHg 63%
    17:00 -1°C° 0 mm 2 mps 752 mmHg 68%
    18:00 -1°C° 0 mm 3 mps 752 mmHg 69%
    19:00 -1°C° 0 mm 3 mps 752 mmHg 70%
    20:00 -2°C° 0 mm 3 mps 752 mmHg 72%
    21:00 -1°C° 0 mm 3 mps 752 mmHg 75%
    22:00 -1°C° 0 mm 3 mps 752 mmHg 78%
    23:00 -1°C° 0 mm 3 mps 751 mmHg 81%

    24 November, Saturday

    Time Temperature Precipitation Wind Pressure Humidity
    00:00 -1°C° 0 mm 3 mps 751 mmHg 84%
    01:00 -1°C° 0 mm 3 mps 751 mmHg 87%
    02:00 -1°C° 0 mm 3 mps 750 mmHg 90%
    03:00 -1°C° 0 mm 3 mps 750 mmHg 91%
    04:00 -1°C° 0 mm 3 mps 749 mmHg 93%
    05:00 0°C° 0 mm 3 mps 749 mmHg 94%
    06:00 0°C° 0 mm 3 mps 749 mmHg 94%
    07:00 0°C° 0 mm 3 mps 748 mmHg 94%
    08:00 0°C° 0 mm 3 mps 748 mmHg 95%
    09:00 +1°C° 0 mm 3 mps 748 mmHg 91%
    10:00 +2°C° 0 mm 3 mps 748 mmHg 88%
    11:00 +3°C° 0 mm 3 mps 748 mmHg 84%
    12:00 +4°C° 0 mm 3 mps 747 mmHg 83%
    13:00 +5°C° 0 mm 3 mps 746 mmHg 82%
    14:00 +5°C° 0 mm 3 mps 746 mmHg 80%
    15:00 +4°C° 0.1 mm 3 mps 746 mmHg 84%
    16:00 +4°C° 0.1 mm 3 mps 745 mmHg 87%
    17:00 +4°C° 0.1 mm 2 mps 745 mmHg 90%
    18:00 +4°C° 0.1 mm 2 mps 745 mmHg 91%
    19:00 +3°C° 0.1 mm 3 mps 744 mmHg 91%
    20:00 +3°C° 0.1 mm 3 mps 744 mmHg 92%
    21:00 +3°C° 0.2 mm 3 mps 744 mmHg 92%
    22:00 +3°C° 0.2 mm 3 mps 744 mmHg 93%
    23:00 +3°C° 0.2 mm 3 mps 743 mmHg 93%

    25 November, Sunday

    Time Temperature Precipitation Wind Pressure Humidity
    00:00 +3°C° 0.1 mm 3 mps 743 mmHg 93%
    01:00 +3°C° 0.1 mm 3 mps 743 mmHg 93%
    02:00 +3°C° 0.1 mm 3 mps 742 mmHg 92%
    03:00 +3°C° 0.1 mm 3 mps 742 mmHg 92%
    04:00 +3°C° 0.1 mm 3 mps 742 mmHg 92%
    05:00 +3°C° 0.1 mm 3 mps 741 mmHg 92%
    06:00 +3°C° 0.1 mm 3 mps 741 mmHg 92%
    07:00 +3°C° 0.1 mm 3 mps 741 mmHg 92%
    08:00 +3°C° 0.1 mm 3 mps 740 mmHg 92%
    09:00 +4°C° 0.4 mm 3 mps 740 mmHg 91%
    10:00 +4°C° 0.4 mm 3 mps 740 mmHg 90%
    11:00 +4°C° 0.4 mm 4 mps 740 mmHg 89%
    12:00 +5°C° 0.5 mm 3 mps 740 mmHg 89%
    13:00 +5°C° 0.5 mm 3 mps 740 mmHg 89%
    14:00 +5°C° 0.5 mm 3 mps 739 mmHg 90%
    15:00 +5°C° 0.1 mm 3 mps 739 mmHg 90%
    16:00 +4°C° 0.1 mm 3 mps 739 mmHg 91%
    17:00 +5°C° 0.1 mm 2 mps 739 mmHg 92%
    18:00 +5°C° 0 mm 2 mps 739 mmHg 91%
    19:00 +4°C° 0 mm 3 mps 739 mmHg 91%
    20:00 +4°C° 0 mm 3 mps 739 mmHg 90%
    21:00 +4°C° 0 mm 3 mps 739 mmHg 91%
    22:00 +4°C° 0 mm 3 mps 740 mmHg 91%
    23:00 +3°C° 0 mm 3 mps 740 mmHg 91%
    Show more